Location: LDNL
(36.4545°S, 141.6685°E)
Time: 12:59:10
(UTC+11:00)

Vanguard 2 Rocket - All Passes

Search period start: 23 January 2022 00:00
Search period end: 02 February 2022 00:00
Orbit: 553 x 3325 km, 32.9° (Epoch: 22 January)

Date Brightness Start Highest point End Pass type
(mag) Time Alt. Az. Time Alt. Az. Time Alt. Az.
23 Jan - 15:11:28 10° NW 15:16:30 24° NNE 15:20:13 10° ENE daylight
23 Jan - 17:24:43 10° WNW 17:29:09 49° N 17:32:59 10° E daylight
23 Jan - 19:37:46 10° W 19:41:33 43° N 19:46:03 10° ENE daylight
23 Jan - 21:50:51 10° WNW 21:54:18 19° NNW 21:58:48 10° NNE visible
24 Jan - 14:11:26 10° NNW 14:16:45 20° NNE 14:20:39 10° ENE daylight
24 Jan - 16:24:36 10° WNW 16:29:44 43° N 16:33:37 10° E daylight
24 Jan - 18:38:13 10° W 18:42:12 50° N 18:46:14 10° ENE daylight
24 Jan - 20:51:14 10° WNW 20:54:40 24° NNW 20:59:01 10° NE daylight
25 Jan - 13:11:33 10° NNW 13:16:45 17° NNE 13:20:43 10° ENE daylight
25 Jan - 15:24:11 10° NW 15:30:13 37° NNE 15:34:22 10° E daylight
25 Jan - 17:38:20 10° WNW 17:42:50 54° N 17:46:43 10° ENE daylight
25 Jan - 19:51:40 10° W 19:55:12 31° NNW 19:59:18 10° NE daylight
25 Jan - 22:07:17 10° NNW 22:08:02 10° NNW 22:08:49 10° NNW visible
26 Jan - 12:12:14 10° N 12:16:30 13° NNE 12:20:01 10° NE daylight
26 Jan - 14:23:31 10° NW 14:30:30 31° NNE 14:35:06 10° ENE daylight
26 Jan - 16:38:02 10° WNW 16:43:26 54° N 16:47:24 10° E daylight
26 Jan - 18:51:59 10° W 18:55:51 40° NNW 18:59:44 10° ENE daylight
26 Jan - 21:06:01 10° NW 21:08:19 14° NNW 21:10:57 10° N daylight
27 Jan - 13:22:47 10° NNW 13:30:33 27° NNE 13:35:41 10° ENE daylight
27 Jan - 15:37:20 10° WNW 15:43:54 50° N 15:48:15 10° E daylight
27 Jan - 17:52:00 10° W 17:56:31 50° N 18:00:20 10° ENE daylight
27 Jan - 20:05:53 10° WNW 20:08:48 19° NNW 20:12:02 10° NNE daylight
28 Jan - 12:22:08 10° NNW 12:30:19 23° NNE 12:35:58 10° ENE daylight
28 Jan - 14:36:17 10° WNW 14:44:12 44° NNE 14:49:07 10° E daylight
28 Jan - 16:51:37 10° W 16:57:06 57° N 17:01:06 10° ENE daylight
28 Jan - 19:05:54 10° W 19:09:25 28° NNW 19:12:56 10° NE daylight
29 Jan - 11:21:52 10° NNW 11:29:48 18° NNE 11:35:40 10° ENE daylight
29 Jan - 13:35:01 10° NW 13:44:17 39° NNE 13:49:55 10° E daylight
29 Jan - 15:50:46 10° WNW 15:57:35 59° N 16:01:59 10° E daylight
29 Jan - 18:05:45 10° W 18:10:07 39° NNW 18:13:49 10° NE daylight
29 Jan - 20:21:34 10° NW 20:22:19 10° NNW 20:23:06 10° NNW daylight
30 Jan - 10:22:31 10° N 10:29:01 14° NNE 10:34:17 10° ENE daylight
30 Jan - 12:33:40 10° NW 12:44:04 34° NNE 12:50:31 10° E daylight
30 Jan - 14:49:28 10° WNW 14:57:53 57° N 15:02:56 10° E daylight
30 Jan - 17:05:16 10° W 17:10:45 52° N 17:14:44 10° ENE daylight
30 Jan - 19:20:12 10° WNW 19:22:54 17° NNW 19:25:34 10° NNE daylight
31 Jan - 11:32:28 10° NNW 11:43:34 29° NNE 11:50:47 10° E daylight
31 Jan - 13:47:49 10° WNW 13:57:58 52° NNE 14:03:49 10° E daylight
31 Jan - 16:04:19 10° W 16:11:15 62° N 16:15:42 10° ENE daylight
31 Jan - 18:19:39 10° W 18:23:36 27° NNW 18:27:00 10° NE daylight
01 Feb - 10:31:40 10° NNW 10:42:45 24° NNE 10:50:32 10° ENE daylight
01 Feb - 12:45:59 10° NW 12:57:45 46° NNE 13:04:34 10° E daylight
01 Feb - 15:02:53 10° WNW 15:11:33 65° N 15:16:39 10° E daylight
01 Feb - 17:18:59 10° W 17:24:18 41° NNW 17:28:12 10° NE daylight
